Location: Pinawa
(50.1500°N, 95.8830°W)
Time: 13:51:36
(UTC-06:00)

Amateur Radio Satellites - All Passes

Search period start: 02 December 2016 13:21
Search period end: 03 December 2016 13:21
Location: Pinawa, 50.1500°N, 95.8830°W

Satellite Date Start Highest point End Downlink Frequencies (MHz)
Time Altitude Azimuth
DX 1 02 Dec 13:28:46 13:33:07 63° 289° (WNW) 13:37:28 434.975-435.025
Cosmos 2499 02 Dec 13:35:55 13:43:59 43° 275° (W) 13:51:35 435.465 / 435.565
ESTCUBE 1 02 Dec 13:37:11 13:40:09 18° 302° (WNW) 13:43:07 437.505/2401.250
SWISSCUBE 02 Dec 13:38:11 13:39:40 11° 85° (E) 13:41:09 437.505
BEESAT 02 Dec 13:42:43 13:44:11 11° 85° (E) 13:45:39 436.000
UKube-1 02 Dec 13:44:18 13:48:35 58° 289° (WNW) 13:52:50 .
50 SAT 02 Dec 13:47:32 13:50:13 20° 296° (WNW) 13:52:54 437.505
Gurwin Techsat 1B 02 Dec 13:53:38 13:58:49 52° 260° (W) 14:04:02 435.225
RS-15 02 Dec 13:53:44 14:05:17 42° 11° (N) 14:16:50 29.354- 29.394
BEESAT 3 02 Dec 13:58:04 14:01:57 46° 43° (NE) 14:05:48 437.485
AISAT 02 Dec 14:01:15 14:04:33 21° 300° (WNW) 14:07:51 437.250
AO-7 02 Dec 14:02:26 14:10:28 56° 60° (ENE) 14:18:32 29.400- 29.500
ITUPSAT 1 02 Dec 14:06:03 14:09:22 18° 90° (E) 14:12:40 437.325
SPROUT 02 Dec 14:06:30 14:09:57 24° 297° (WNW) 14:13:24 437.525
TISAT 1 02 Dec 14:06:57 14:11:14 79° 105° (ESE) 14:15:27 437.305
BEESAT 2 02 Dec 14:18:11 14:22:00 38° 41° (NE) 14:25:47 435.950
AUBIESAT-1 02 Dec 14:21:23 14:25:01 22° 97° (E) 14:28:35 437.475
M-CUBED/EXP-1 PRIME 02 Dec 14:29:38 14:33:51 31° 101° (E) 14:37:59 437.505
PCSat 02 Dec 14:30:08 14:35:09 37° 319° (NW) 14:40:12 145.827
AIST 2 02 Dec 14:31:21 14:32:53 12° 8° (N) 14:34:24 435.215
Oscar 19 02 Dec 14:34:12 14:36:54 14° 274° (W) 14:39:36 437.125/150
VELOX 1 02 Dec 14:40:07 14:41:22 11° 307° (NW) 14:42:37 145.980
ITAMSAT 1 02 Dec 14:50:06 14:55:16 63° 258° (WSW) 15:00:29 435.822/435.867
GONETS M04 02 Dec 15:01:20 15:06:13 17° 289° (WNW) 15:11:07
HORYU 2 02 Dec 15:06:41 15:08:44 13° 54° (NE) 15:10:47 437.375
DX 1 02 Dec 15:07:46 15:08:27 10° 308° (NW) 15:09:08 434.975-435.025
SWISSCUBE 02 Dec 15:13:28 15:18:16 80° 105° (ESE) 15:23:01 437.505
BEESAT 02 Dec 15:17:58 15:22:46 80° 104° (ESE) 15:27:31 436.000
MOZHAYETS 4 02 Dec 15:23:29 15:27:22 27° 94° (E) 15:31:13
BEESAT 3 02 Dec 15:36:04 15:39:23 26° 243° (WSW) 15:42:42 437.485
ITUPSAT 1 02 Dec 15:42:56 15:47:40 65° 288° (WNW) 15:52:21 437.325
TISAT 1 02 Dec 15:43:54 15:46:18 15° 303° (WNW) 15:48:42 437.305
AUBIESAT-1 02 Dec 15:55:09 15:59:42 56° 296° (WNW) 16:04:10 437.475
AO-7 02 Dec 15:55:42 16:03:28 43° 261° (W) 16:11:20 29.400- 29.500
BEESAT 2 02 Dec 15:56:06 15:59:45 33° 240° (WSW) 16:03:21 435.950
CUTE-I 02 Dec 15:57:00 16:00:11 16° 52° (NE) 16:03:22 437.470
M-CUBED/EXP-1 PRIME 02 Dec 16:03:57 16:08:21 41° 299° (WNW) 16:12:43 437.505
GOMX 1 02 Dec 16:06:07 16:09:39 22° 59° (ENE) 16:13:23 467.674
RS-15 02 Dec 16:07:51 16:20:18 71° 42° (NE) 16:32:28 29.354- 29.394
BRITE-PL 02 Dec 16:08:43 16:12:47 43° 68° (ENE) 16:17:08 437.365/2234.400
AIST 2 02 Dec 16:09:19 16:12:48 24° 32° (NNE) 16:16:16 435.215
PCSat 02 Dec 16:16:56 16:20:09 16° 344° (NNW) 16:23:23 145.827
Cubesat XI-IV 02 Dec 16:20:23 16:24:31 23° 57° (ENE) 16:28:39 437.490
KKS-1 02 Dec 16:23:07 16:27:25 43° 99° (E) 16:31:41 437.445
LilacSat-2 02 Dec 16:28:48 16:31:24 17° 62° (ENE) 16:33:59 437.200
NOAA 15 02 Dec 16:31:28 16:35:56 29° 61° (ENE) 16:40:25 137.62
DOVE 4 02 Dec 16:37:09 16:40:45 21° 58° (ENE) 16:44:30 437.250
HORYU 2 02 Dec 16:40:04 16:44:34 80° 73° (ENE) 16:49:05 437.375
STARS 02 Dec 16:40:34 16:44:35 32° 96° (E) 16:48:32 437.465
HO-68 02 Dec 16:51:39 16:56:07 18° 44° (NE) 17:00:37 435.675
CUBESAT XI-V 02 Dec 16:51:57 16:56:08 32° 95° (E) 17:00:19 437.345
SWISSCUBE 02 Dec 16:52:24 16:55:29 17° 304° (NW) 16:58:34 437.505
BEESAT 02 Dec 16:56:53 16:59:59 17° 304° (WNW) 17:03:04 436.000
MOZHAYETS 4 02 Dec 17:00:23 17:04:40 41° 292° (WNW) 17:08:56
Cosmos 2491 02 Dec 17:05:06 17:12:32 30° 60° (ENE) 17:19:54 435.465 / 435.565
O/OREOS (USA 219) 02 Dec 17:06:40 17:11:06 53° 111° (ESE) 17:15:33 437.305
NOAA 18 02 Dec 17:09:40 17:14:45 39° 63° (ENE) 17:19:52 137.9125
ITUPSAT 1 02 Dec 17:22:57 17:24:36 12° 309° (NW) 17:26:16 437.325
AUBIESAT-1 02 Dec 17:31:39 17:33:10 12° 315° (NW) 17:34:42 437.475
CUTE-I 02 Dec 17:34:03 17:39:26 79° 72° (ENE) 17:44:49 437.470
ISS 02 Dec 17:36:04 17:37:33 13° 137° (SE) 17:39:04 145.825
GOMX 1 02 Dec 17:42:52 17:47:19 57° 260° (W) 17:52:09 467.674
YUBILEINY 02 Dec 17:44:50 17:49:10 15° 69° (ENE) 17:53:32 435.215
AIST 2 02 Dec 17:47:29 17:51:43 74° 233° (SW) 17:55:56 435.215
BRITE-PL 02 Dec 17:48:09 17:51:34 23° 269° (W) 17:55:11 437.365/2234.400
Cubesat XI-IV 02 Dec 17:58:45 18:04:07 70° 257° (WSW) 18:09:31 437.490
KKS-1 02 Dec 18:00:03 18:03:48 26° 298° (WNW) 18:07:31 437.445
LilacSat-2 02 Dec 18:01:34 18:05:21 52° 260° (W) 18:09:08 437.200
PCSat 02 Dec 18:03:02 18:05:53 14° 10° (N) 18:08:44 145.827
CUTE 1.7 + AOD 2 02 Dec 18:04:28 18:07:36 20° 62° (ENE) 18:10:43 437.475
NOAA 15 02 Dec 18:10:26 18:15:30 50° 260° (W) 18:20:37 137.62
DOVE 4 02 Dec 18:13:12 18:17:55 67° 259° (W) 18:22:59 437.250
STARS 02 Dec 18:16:56 18:20:55 33° 295° (WNW) 18:24:54 437.465
HORYU 2 02 Dec 18:19:23 18:21:42 14° 272° (W) 18:24:01 437.375
CANX-2 02 Dec 18:20:52 18:24:36 32° 67° (ENE) 18:28:21 2200.000
RS-15 02 Dec 18:20:54 18:32:24 48° 248° (WSW) 18:43:37 29.354- 29.394
CINEMA 3 02 Dec 18:23:16 18:28:01 50° 69° (ENE) 18:32:53 145.822/145.860
UWE-3 02 Dec 18:25:36 18:27:41 13° 55° (NE) 18:29:44 435.000/436.395/437.385
CUBESAT XI-V 02 Dec 18:29:19 18:33:33 36° 294° (WNW) 18:37:47 437.345
HO-68 02 Dec 18:35:32 18:42:33 63° 66° (ENE) 18:49:39 435.675
O/OREOS (USA 219) 02 Dec 18:47:00 18:50:48 25° 312° (NW) 18:54:36 437.305
AAUSAT CUBESAT 2 02 Dec 18:47:16 18:50:20 21° 62° (ENE) 18:53:25 437.432
NOAA 18 02 Dec 18:50:13 18:55:24 40° 262° (W) 19:00:38 137.9125
STRAND 1 02 Dec 18:53:35 18:57:37 23° 92° (E) 19:01:37 437.568
SEEDS 02 Dec 18:54:24 18:58:19 41° 69° (ENE) 19:02:15 437.485
Cosmos 2491 02 Dec 19:01:40 19:10:25 79° 264° (W) 19:19:06 435.465 / 435.565
CUBEBUG 2 02 Dec 19:08:11 19:12:37 40° 67° (ENE) 19:17:02 437.445
AIST 1 02 Dec 19:09:47 19:10:08 10° 80° (E) 19:10:29
ISS 02 Dec 19:10:16 19:13:30 54° 155° (SSE) 19:16:45 145.825
COMPASS 1 02 Dec 19:12:24 19:16:19 43° 69° (ENE) 19:20:15 437.405
ZACube-1 02 Dec 19:14:04 19:17:29 21° 61° (ENE) 19:20:53 437.345
CUTE-I 02 Dec 19:16:30 19:20:06 18° 271° (W) 19:23:44 437.470
Cosmos 2504 02 Dec 19:21:32 19:28:24 29° 79° (E) 19:35:34 435.465 / 435.565
FUNcube-1 02 Dec 19:23:51 19:27:28 24° 63° (ENE) 19:31:02 145.935
AIST 2 02 Dec 19:28:29 19:29:26 11° 251° (WSW) 19:30:23 435.215
YUBILEINY 02 Dec 19:35:34 19:44:07 64° 92° (E) 19:52:44 435.215
CUTE 1.7 + AOD 2 02 Dec 19:39:01 19:43:08 51° 260° (W) 19:47:15 437.475
Cubesat XI-IV 02 Dec 19:43:34 19:45:12 11° 276° (W) 19:46:50 437.490
PCSat 02 Dec 19:46:23 19:51:07 29° 36° (NE) 19:55:50 145.827
CANX-2 02 Dec 19:56:43 20:00:28 30° 265° (W) 20:04:13 2200.000
UWE-3 02 Dec 19:58:42 20:03:23 76° 74° (ENE) 20:08:01 435.000/436.395/437.385
Oscar 11 02 Dec 19:58:58 20:03:05 44° 69° (ENE) 20:07:12 145.826/435.025
CINEMA 3 02 Dec 20:01:19 20:05:24 26° 269° (W) 20:09:35 145.822/145.860
DELFI C3 02 Dec 20:19:34 20:22:54 27° 65° (ENE) 20:26:14 145.870
AAUSAT CUBESAT 2 02 Dec 20:21:34 20:25:31 48° 261° (W) 20:29:32 437.432
HO-68 02 Dec 20:24:27 20:30:44 32° 266° (W) 20:37:05 435.675
SEEDS 02 Dec 20:30:51 20:34:11 23° 267° (W) 20:37:32 437.485
STRAND 1 02 Dec 20:32:09 20:37:10 58° 291° (WNW) 20:42:10 437.568
SO-50 02 Dec 20:33:52 20:37:04 18° 112° (ESE) 20:40:14 436.795
RS-15 02 Dec 20:39:13 20:41:22 11° 273° (W) 20:43:30 29.354- 29.394
AIST 1 02 Dec 20:42:37 20:46:56 85° 98° (E) 20:51:19
CUBEBUG 2 02 Dec 20:45:07 20:49:18 30° 266° (W) 20:53:30 437.445
ISS 02 Dec 20:46:42 20:50:01 67° 354° (N) 20:53:20 145.825
COMPASS 1 02 Dec 20:48:52 20:52:04 21° 268° (W) 20:55:17 437.405
ZACube-1 02 Dec 20:48:55 20:53:26 57° 260° (W) 20:57:54 437.345
CUSAT 1 02 Dec 20:49:37 20:52:42 70° 77° (ENE) 20:56:37 437.405
DANDE 02 Dec 20:58:50 21:00:33 16° 69° (ENE) 21:02:20 436.750
FUNcube-1 02 Dec 20:59:01 21:03:26 49° 261° (W) 21:07:49 145.935
Cosmos 2491 02 Dec 21:00:07 21:05:49 20° 286° (WNW) 21:11:29 435.465 / 435.565
Cosmos 2504 02 Dec 21:12:34 21:20:56 77° 282° (WNW) 21:29:50 435.465 / 435.565
HUMSAT D 02 Dec 21:15:10 21:19:19 56° 72° (ENE) 21:23:26 437.325/437.525
TIGRISAT 02 Dec 21:23:19 21:24:59 12° 85° (E) 21:26:38 435.000
ANTELSAT 02 Dec 21:23:31 21:25:28 13° 86° (E) 21:27:24 437.575/2403.000
PRISM 02 Dec 21:27:50 21:31:54 50° 100° (E) 21:35:56 437.425
ESTCUBE 1 02 Dec 21:28:25 21:31:17 17° 58° (ENE) 21:34:10 437.505/2401.250
PCSat 02 Dec 21:29:36 21:35:02 74° 238° (WSW) 21:40:26 145.827
YUBILEINY 02 Dec 21:33:38 21:41:30 37° 296° (WNW) 21:49:29 435.215
Oscar 11 02 Dec 21:35:59 21:39:25 23° 268° (W) 21:42:52 145.826/435.025
UWE-3 02 Dec 21:37:35 21:40:21 15° 272° (W) 21:43:07 435.000/436.395/437.385
AISAT 02 Dec 21:51:46 21:54:06 14° 55° (NE) 21:56:26 437.250
DELFI C3 02 Dec 21:54:07 21:57:38 31° 264° (W) 22:01:11 145.870
SO-50 02 Dec 22:12:14 22:17:00 81° 311° (NW) 22:21:43 436.795
STRAND 1 02 Dec 22:13:41 22:15:20 11° 311° (NW) 22:16:58 437.568
AIST 1 02 Dec 22:23:11 22:25:13 13° 299° (WNW) 22:27:16
ISS 02 Dec 22:23:20 22:26:39 86° 11° (N) 22:30:00 145.825
CUBEBUG 1 02 Dec 22:25:59 22:29:54 33° 66° (ENE) 22:33:51 437.445
UNISAT 6 02 Dec 22:26:42 22:31:04 49° 99° (E) 22:35:19 437.425
VELOX 1 02 Dec 22:27:18 22:30:57 26° 63° (ENE) 22:34:38 145.980
DANDE 02 Dec 22:41:18 22:43:11 18° 266° (W) 22:45:13 436.750
HUMSAT D 02 Dec 22:52:26 22:55:16 17° 270° (W) 22:58:06 437.325/437.525
DX 1 02 Dec 22:53:12 22:56:50 27° 63° (ENE) 23:00:30 434.975-435.025
50 SAT 02 Dec 22:53:28 22:56:35 31° 68° (ENE) 22:59:44 437.505
POPSAT HIP 1 02 Dec 22:56:37 22:58:44 13° 88° (E) 23:00:49 437.405
TIGRISAT 02 Dec 22:57:53 23:02:24 89° 285° (WNW) 23:06:46 435.000
ANTELSAT 02 Dec 22:58:21 23:02:51 84° 285° (WNW) 23:07:13 437.575/2403.000
ESTCUBE 1 02 Dec 23:03:07 23:07:35 74° 257° (WSW) 23:12:05 437.505/2401.250
PRISM 02 Dec 23:03:48 23:06:54 21° 299° (WNW) 23:10:00 437.425
UKube-1 02 Dec 23:07:43 23:11:23 28° 64° (ENE) 23:15:05 .
Cosmos 2504 02 Dec 23:09:43 23:16:04 22° 307° (NW) 23:22:38 435.465 / 435.565
PCSat 02 Dec 23:15:01 23:17:30 13° 257° (WSW) 23:19:59 145.827
AISAT 02 Dec 23:25:28 23:29:54 90° 38° (NE) 23:34:23 437.250
SPROUT 02 Dec 23:27:35 23:31:49 60° 71° (ENE) 23:36:06 437.525
TISAT 1 02 Dec 23:29:17 23:31:43 15° 58° (ENE) 23:34:11 437.305
JAS-2 02 Dec 23:35:27 23:40:27 44° 98° (E) 23:45:28 435.910
YUBILEINY 02 Dec 23:40:53 23:41:48 10° 325° (NW) 23:42:43 435.215
M-CUBED/EXP-1 PRIME 02 Dec 23:48:00 23:50:02 13° 47° (NE) 23:52:06 437.505
NANOSAT C BR1 02 Dec 23:52:35 23:56:40 43° 99° (E) 00:00:42 145.865
BUGSAT 1 02 Dec 23:54:15 23:57:13 18° 91° (E) 00:00:10 437.445
SO-50 02 Dec 23:54:23 23:58:09 23° 333° (NNW) 00:01:52 436.795
QB50P2 02 Dec 23:54:42 23:58:53 52° 100° (E) 00:03:01 145.880/145.840
POLYITAN 1 02 Dec 23:55:21 23:59:31 50° 100° (E) 00:03:38 437.675
ISS 03 Dec 00:00:02 00:02:57 29° 214° (SSW) 00:05:51 145.825
CUBEBUG 1 03 Dec 00:02:18 00:06:11 31° 265° (W) 00:10:07 437.445
VELOX 1 03 Dec 00:03:03 00:07:14 42° 262° (W) 00:11:29 145.980
UNISAT 6 03 Dec 00:03:59 00:07:30 23° 299° (WNW) 00:10:56 437.425
QB50P1 03 Dec 00:09:35 00:13:52 69° 102° (ESE) 00:18:05 145.935-145.965
GONETS M04 03 Dec 00:13:58 00:21:13 31° 81° (E) 00:28:28
DUCHIFAT 1 03 Dec 00:16:40 00:20:56 71° 104° (ESE) 00:25:07 145.980
Cosmos 2499 03 Dec 00:24:05 00:31:45 38° 84° (E) 00:39:41 435.465 / 435.565
50 SAT 03 Dec 00:27:10 00:29:57 22° 266° (W) 00:32:46 437.505
DX 1 03 Dec 00:28:46 00:32:52 40° 261° (W) 00:37:01 434.975-435.025
POPSAT HIP 1 03 Dec 00:30:46 00:35:04 76° 285° (WNW) 00:39:17 437.405
TIGRISAT 03 Dec 00:36:06 00:38:24 14° 305° (NW) 00:40:39 435.000
ANTELSAT 03 Dec 00:36:44 00:38:50 13° 305° (NW) 00:40:54 437.575/2403.000
UKube-1 03 Dec 00:43:18 00:47:18 37° 262° (W) 00:51:22 .
SWISSCUBE 03 Dec 00:47:52 00:51:40 24° 60° (ENE) 00:55:28 437.505
BEESAT 03 Dec 00:52:19 00:56:07 24° 60° (ENE) 00:59:55 436.000
Oscar 19 03 Dec 00:59:00 01:03:07 23° 92° (E) 01:07:11 437.125/150
TISAT 1 03 Dec 01:02:35 01:06:49 78° 256° (WSW) 01:11:07 437.305
SPROUT 03 Dec 01:05:19 01:08:09 17° 270° (W) 01:11:00 437.525
AISAT 03 Dec 01:05:23 01:07:03 12° 274° (W) 01:08:43 437.250
AUBIESAT-1 03 Dec 01:10:36 01:14:37 51° 63° (ENE) 01:18:55 437.475
ITUPSAT 1 03 Dec 01:16:47 01:21:08 36° 65° (ENE) 01:25:32 437.325
M-CUBED/EXP-1 PRIME 03 Dec 01:19:36 01:23:41 74° 66° (ENE) 01:28:07 437.505
JAS-2 03 Dec 01:20:58 01:25:28 30° 299° (WNW) 01:29:56 435.910
NANOSAT C BR1 03 Dec 01:28:46 01:32:10 24° 297° (WNW) 01:35:33 145.865
BUGSAT 1 03 Dec 01:28:47 01:32:55 53° 289° (WNW) 01:36:59 437.445
QB50P2 03 Dec 01:31:11 01:34:22 21° 299° (WNW) 01:37:31 145.880/145.840
POLYITAN 1 03 Dec 01:31:47 01:35:01 21° 299° (WNW) 01:38:14 437.675
O/OREOS (USA 219) 03 Dec 01:32:58 01:37:04 33° 52° (NE) 01:41:09 437.305
SO-50 03 Dec 01:37:51 01:40:14 14° 357° (N) 01:42:37 436.795
QB50P1 03 Dec 01:46:27 01:49:09 17° 301° (WNW) 01:51:50 145.935-145.965
KKS-1 03 Dec 01:52:26 01:53:57 12° 53° (NE) 01:55:28 437.445
DUCHIFAT 1 03 Dec 01:53:29 01:56:07 16° 302° (WNW) 01:58:43 145.980
AO-7 03 Dec 02:02:34 02:04:17 11° 79° (E) 02:05:59 29.400- 29.500
Gurwin Techsat 1B 03 Dec 02:04:54 02:10:00 44° 98° (E) 02:15:03 435.225
GONETS M04 03 Dec 02:08:38 02:17:21 72° 284° (WNW) 02:26:04
POPSAT HIP 1 03 Dec 02:08:42 02:10:05 11° 306° (NW) 02:11:27 437.405
Cosmos 2499 03 Dec 02:16:01 02:24:30 62° 286° (WNW) 02:33:21 435.465 / 435.565
AO-85 03 Dec 02:17:29 02:20:23 16° 112° (ESE) 02:23:09 145.980
SWISSCUBE 03 Dec 02:24:29 02:29:09 54° 259° (W) 02:33:51 437.505
BEESAT 03 Dec 02:28:54 02:33:35 54° 259° (W) 02:38:18 436.000
MOZHAYETS 4 03 Dec 02:29:28 02:33:49 43° 68° (ENE) 02:38:10
Oscar 19 03 Dec 02:37:42 02:42:48 59° 290° (WNW) 02:47:54 437.125/150
AUBIESAT-1 03 Dec 02:46:11 02:49:21 21° 264° (W) 02:52:40 437.475
ITUPSAT 1 03 Dec 02:54:40 02:59:00 33° 264° (W) 03:03:21 437.325
M-CUBED/EXP-1 PRIME 03 Dec 02:56:27 02:58:45 14° 267° (W) 03:01:08 437.505
ITAMSAT 1 03 Dec 02:58:21 03:03:01 32° 95° (E) 03:07:38 435.822/435.867
O/OREOS (USA 219) 03 Dec 03:12:24 03:16:30 35° 252° (WSW) 03:20:34 437.305
SO-50 03 Dec 03:19:07 03:22:27 19° 22° (NNE) 03:25:45 436.795
KKS-1 03 Dec 03:25:15 03:29:42 70° 72° (ENE) 03:34:11 437.445
STARS 03 Dec 03:41:13 03:45:30 51° 69° (ENE) 03:49:50 437.465
Gurwin Techsat 1B 03 Dec 03:45:06 03:49:50 33° 297° (WNW) 03:54:33 435.225
YUBILEINY 03 Dec 03:45:10 03:48:04 12° 38° (NE) 03:50:58 435.215
PHONESAT 2.4 03 Dec 03:48:26 03:48:59 10° 173° (S) 03:49:33 2401.200-2431.200
AO-7 03 Dec 03:51:01 03:59:11 52° 102° (ESE) 04:07:17 29.400- 29.500
AO-85 03 Dec 03:55:27 04:00:18 90° 274° (W) 04:04:48 145.980
CUBESAT XI-V 03 Dec 03:59:29 04:03:55 52° 70° (ENE) 04:08:24 437.345
MOZHAYETS 4 03 Dec 04:07:19 04:11:09 26° 267° (W) 04:15:00
BRITE-PL 03 Dec 04:09:13 04:11:38 13° 85° (E) 04:14:05 437.365/2234.400
GONETS M04 03 Dec 04:09:58 04:16:01 20° 309° (NW) 04:22:07
Cosmos 2499 03 Dec 04:14:11 04:19:50 18° 312° (NW) 04:25:34 435.465 / 435.565
Oscar 19 03 Dec 04:19:14 04:21:07 12° 311° (NW) 04:23:00 437.125/150
HORYU 2 03 Dec 04:28:53 04:29:55 11° 86° (E) 04:30:57 437.375
ITAMSAT 1 03 Dec 04:37:43 04:42:36 42° 295° (WNW) 04:47:27 435.822/435.867
STRAND 1 03 Dec 04:39:31 04:40:31 11° 48° (NE) 04:41:31 437.568
SO-50 03 Dec 04:59:16 05:03:49 60° 45° (NE) 05:08:16 436.795
KKS-1 03 Dec 05:04:02 05:06:45 16° 271° (W) 05:09:30 437.445
Cosmos 2504 03 Dec 05:07:13 05:12:44 17° 47° (NE) 05:18:09 435.465 / 435.565
STARS 03 Dec 05:18:46 05:22:08 21° 268° (W) 05:25:33 437.465
BEESAT 3 03 Dec 05:31:05 05:33:28 16° 113° (ESE) 05:35:53 437.485
LilacSat-2 03 Dec 05:31:45 05:33:24 12° 88° (E) 05:35:05 437.200
AO-85 03 Dec 05:37:34 05:41:16 23° 330° (NNW) 05:44:46 145.980
CUBESAT XI-V 03 Dec 05:38:06 05:41:37 21° 269° (W) 05:45:09 437.345
GOMX 1 03 Dec 05:39:16 05:44:12 35° 94° (E) 05:49:12 467.674
YUBILEINY 03 Dec 05:39:46 05:48:02 42° 66° (ENE) 05:56:16 435.215
AO-7 03 Dec 05:44:02 05:51:55 48° 303° (WNW) 05:59:48 29.400- 29.500
BRITE-PL 03 Dec 05:45:36 05:50:51 76° 103° (ESE) 05:56:25 437.365/2234.400
CUTE-I 03 Dec 05:47:03 05:51:09 22° 91° (E) 05:55:12 437.470
BEESAT 2 03 Dec 05:53:28 05:55:17 13° 111° (ESE) 05:57:08 435.950
HORYU 2 03 Dec 06:02:43 06:07:13 83° 107° (ESE) 06:11:38 437.375
DOVE 4 03 Dec 06:07:24 06:12:01 29° 92° (E) 06:16:33 437.250
Cubesat XI-IV 03 Dec 06:11:26 06:16:16 33° 95° (E) 06:21:04 437.490
STRAND 1 03 Dec 06:13:37 06:18:36 52° 68° (ENE) 06:23:35 437.568
Cosmos 2491 03 Dec 06:13:55 06:20:48 27° 78° (ENE) 06:27:39 435.465 / 435.565
NOAA 15 03 Dec 06:20:32 06:25:33 43° 98° (E) 06:30:34 137.62
SO-50 03 Dec 06:40:21 06:43:56 23° 245° (WSW) 06:47:28 436.795
RS-15 03 Dec 06:40:35 06:48:58 23° 98° (E) 06:57:32 29.354- 29.394
AIST 1 03 Dec 06:44:50 06:48:54 35° 72° (ENE) 06:52:57
Cosmos 2504 03 Dec 06:59:38 07:08:27 59° 73° (ENE) 07:16:51 435.465 / 435.565
LilacSat-2 03 Dec 07:04:22 07:08:10 65° 286° (WNW) 07:11:54 437.200
BEESAT 3 03 Dec 07:06:42 07:10:36 71° 312° (NW) 07:14:34 437.485
NOAA 18 03 Dec 07:06:55 07:12:27 61° 102° (ESE) 07:17:54 137.9125
GOMX 1 03 Dec 07:17:17 07:22:20 43° 293° (WNW) 07:27:29 467.674
CUTE 1.7 + AOD 2 03 Dec 07:19:41 07:22:49 20° 91° (E) 07:25:56 437.475
AO-85 03 Dec 07:21:35 07:23:13 12° 354° (N) 07:24:48 145.980
BRITE-PL 03 Dec 07:25:02 07:28:51 21° 301° (WNW) 07:32:50 437.365/2234.400
CUTE-I 03 Dec 07:26:21 07:31:40 65° 290° (WNW) 07:36:55 437.470
BEESAT 2 03 Dec 07:28:31 07:32:29 87° 315° (NW) 07:36:30 435.950
CANX-2 03 Dec 07:36:31 07:40:20 32° 96° (E) 07:44:08 2200.000
YUBILEINY 03 Dec 07:36:40 07:45:11 57° 270° (W) 07:53:43 435.215
AO-7 03 Dec 07:37:59 07:42:47 17° 327° (NNW) 07:47:34 29.400- 29.500
HORYU 2 03 Dec 07:40:34 07:43:10 15° 304° (NW) 07:45:45 437.375
DOVE 4 03 Dec 07:44:47 07:49:54 49° 291° (WNW) 07:54:58 437.250
HO-68 03 Dec 07:45:37 07:52:26 42° 98° (E) 07:59:11 435.675
UWE-3 03 Dec 07:46:17 07:47:29 11° 85° (E) 07:48:41 435.000/436.395/437.385
CINEMA 3 03 Dec 07:50:19 07:55:14 64° 101° (E) 07:59:56 145.822/145.860
Cubesat XI-IV 03 Dec 07:51:25 07:56:28 43° 295° (WNW) 08:01:28 437.490
STRAND 1 03 Dec 07:53:48 07:58:03 26° 267° (W) 08:02:20 437.568
UNISAT 6 03 Dec 07:55:55 07:58:03 13° 55° (NE) 08:00:11 437.425
AAUSAT CUBESAT 2 03 Dec 07:59:30 08:02:30 19° 91° (E) 08:05:30 437.432
NOAA 15 03 Dec 08:00:33 08:05:14 33° 298° (WNW) 08:09:55 137.62
Cosmos 2491 03 Dec 08:07:52 08:16:41 81° 281° (W) 08:25:30 435.465 / 435.565
SEEDS 03 Dec 08:08:51 08:12:50 42° 98° (E) 08:16:49 437.485
PRISM 03 Dec 08:21:18 08:25:19 66° 72° (ENE) 08:29:24 437.425
AIST 1 03 Dec 08:22:38 08:26:24 28° 271° (W) 08:30:09
TIGRISAT 03 Dec 08:25:19 08:28:49 21° 60° (ENE) 08:32:17 435.000
COMPASS 1 03 Dec 08:25:40 08:29:38 43° 98° (E) 08:33:37 437.405
ANTELSAT 03 Dec 08:25:46 08:29:22 22° 61° (ENE) 08:32:56 437.575/2403.000
CUBEBUG 2 03 Dec 08:30:49 08:35:09 44° 98° (E) 08:39:18 437.445
ZACube-1 03 Dec 08:33:20 08:36:33 20° 91° (E) 08:39:41 437.345
FUNcube-1 03 Dec 08:42:50 08:46:16 23° 92° (E) 08:49:37 145.935
BEESAT 3 03 Dec 08:46:12 08:48:55 18° 333° (NNW) 08:51:40 437.485
RS-15 03 Dec 08:47:29 08:59:15 75° 123° (ESE) 09:11:33 29.354- 29.394
NOAA 18 03 Dec 08:48:10 08:52:45 27° 302° (WNW) 08:57:17 137.9125
Cosmos 2504 03 Dec 08:53:30 09:01:32 40° 276° (W) 09:09:15 435.465 / 435.565
CUTE 1.7 + AOD 2 03 Dec 08:54:51 08:58:55 48° 290° (WNW) 09:02:58 437.475
AO-85 03 Dec 09:02:55 09:05:24 15° 19° (NNE) 09:07:48 145.980
BEESAT 2 03 Dec 09:07:53 09:10:51 20° 331° (NNW) 09:13:51 435.950
CUTE-I 03 Dec 09:08:15 09:10:44 13° 310° (NW) 09:13:14 437.470
CANX-2 03 Dec 09:12:28 09:16:09 30° 294° (WNW) 09:19:48 2200.000
Oscar 11 03 Dec 09:17:17 09:21:28 47° 99° (E) 09:25:37 145.826/435.025
QB50P2 03 Dec 09:19:26 09:20:32 11° 54° (NE) 09:21:39 145.880/145.840
UWE-3 03 Dec 09:20:15 09:24:42 88° 112° (ESE) 09:28:58 435.000/436.395/437.385
POLYITAN 1 03 Dec 09:20:18 09:21:12 11° 54° (NE) 09:22:05 437.675
DOVE 4 03 Dec 09:25:29 09:26:24 10° 311° (NW) 09:27:20 437.250
DELFI C3 03 Dec 09:26:36 09:29:48 23° 93° (E) 09:33:00 145.870
AIST 2 03 Dec 09:26:56 09:30:55 50° 123° (ESE) 09:34:58 435.215
CINEMA 3 03 Dec 09:28:13 09:31:54 21° 301° (WNW) 09:35:30 145.822/145.860
UNISAT 6 03 Dec 09:29:18 09:34:00 76° 74° (ENE) 09:38:41 437.425
QB50P1 03 Dec 09:33:02 09:35:09 14° 56° (ENE) 09:37:18 145.935-145.965
HO-68 03 Dec 09:33:25 09:40:17 50° 298° (WNW) 09:47:09 435.675
AAUSAT CUBESAT 2 03 Dec 09:34:15 09:38:15 49° 289° (WNW) 09:42:14 437.432
YUBILEINY 03 Dec 09:36:30 09:39:55 13° 293° (WNW) 09:43:19 435.215
DUCHIFAT 1 03 Dec 09:39:34 09:41:41 14° 57° (ENE) 09:43:50 145.980
SEEDS 03 Dec 09:45:00 09:48:20 24° 296° (WNW) 09:51:40 437.485
JAS-2 03 Dec 09:52:09 09:57:57 38° 64° (ENE) 10:03:10 435.910
POPSAT HIP 1 03 Dec 09:53:03 09:56:09 20° 61° (ENE) 09:59:15 437.405
CUSAT 1 03 Dec 09:57:57 10:01:01 41° 99° (E) 10:03:40 437.405
PRISM 03 Dec 09:58:54 10:01:05 14° 271° (W) 10:03:18 437.425
TIGRISAT 03 Dec 10:00:27 10:05:07 61° 259° (W) 10:09:45 435.000
ANTELSAT 03 Dec 10:01:05 10:05:44 57° 260° (W) 10:10:20 437.575/2403.000
COMPASS 1 03 Dec 10:01:42 10:04:59 23° 297° (WNW) 10:08:15 437.405
CUBEBUG 2 03 Dec 10:07:52 10:11:33 25° 297° (WNW) 10:15:07 437.445
Cosmos 2491 03 Dec 10:08:26 10:15:05 23° 306° (NW) 10:21:46 435.465 / 435.565
ZACube-1 03 Dec 10:08:57 10:13:08 48° 290° (WNW) 10:17:11 437.345
Cosmos 2499 03 Dec 10:09:21 10:15:40 21° 51° (NE) 10:21:44 435.465 / 435.565
DANDE 03 Dec 10:11:40 10:15:12 22° 95° (E) 10:18:07 436.750
GONETS M04 03 Dec 10:16:53 10:23:12 21° 52° (NE) 10:29:30
FUNcube-1 03 Dec 10:18:39 10:22:43 42° 291° (WNW) 10:26:40 145.935
HUMSAT D 03 Dec 10:29:17 10:33:20 55° 101° (E) 10:37:19 437.325/437.525
AO-85 03 Dec 10:42:50 10:46:49 47° 43° (NE) 10:50:37 145.980
Oscar 19 03 Dec 10:45:52 10:46:51 11° 48° (NE) 10:47:50 437.125/150
BUGSAT 1 03 Dec 10:48:01 10:51:28 25° 63° (ENE) 10:54:56 437.445
NANOSAT C BR1 03 Dec 10:48:40 10:52:52 59° 71° (ENE) 10:57:05 145.865
BEESAT 2 03 Dec 10:49:32 10:50:09 10° 355° (N) 10:50:47 435.950
QB50P2 03 Dec 10:51:17 10:55:33 71° 73° (ENE) 10:59:51 145.880/145.840
ESTCUBE 1 03 Dec 10:51:45 10:54:45 17° 90° (E) 10:57:45 437.505/2401.250
POLYITAN 1 03 Dec 10:51:55 10:56:11 68° 72° (ENE) 11:00:29 437.675
Oscar 11 03 Dec 10:53:59 10:57:20 22° 298° (WNW) 11:00:40 145.826/435.025
UWE-3 03 Dec 10:58:14 11:00:28 14° 304° (NW) 11:02:41 435.000/436.395/437.385
RS-15 03 Dec 11:00:56 11:12:42 53° 331° (NNW) 11:24:48 29.354- 29.394
DELFI C3 03 Dec 11:01:03 11:04:44 37° 291° (WNW) 11:08:25 145.870
AIST 2 03 Dec 11:05:55 11:09:36 30° 324° (NW) 11:13:19 435.215
QB50P1 03 Dec 11:06:01 11:10:17 89° 240° (WSW) 11:14:38 145.935-145.965
UNISAT 6 03 Dec 11:08:26 11:11:15 16° 272° (W) 11:14:02 437.425
DUCHIFAT 1 03 Dec 11:12:29 11:16:45 88° 255° (WSW) 11:21:04 145.980
AISAT 03 Dec 11:12:35 11:14:36 13° 87° (E) 11:16:35 437.250
AO-7 03 Dec 11:18:28 11:21:05 12° 22° (NNE) 11:23:42 29.400- 29.500
HO-68 03 Dec 11:22:48 11:26:25 15° 321° (NW) 11:30:03 435.675
POPSAT HIP 1 03 Dec 11:27:21 11:31:34 56° 259° (W) 11:35:49 437.405
JAS-2 03 Dec 11:36:47 11:43:00 45° 261° (W) 11:48:34 435.910
CUBEBUG 1 03 Dec 11:45:35 11:49:40 34° 96° (E) 11:53:43 437.445
VELOX 1 03 Dec 11:48:24 11:52:10 26° 94° (E) 11:55:55 145.980
50 SAT 03 Dec 11:48:25 11:51:01 19° 93° (E) 11:53:36 437.505
Gurwin Techsat 1B 03 Dec 11:52:46 11:56:34 20° 56° (NE) 12:00:24 435.225
DANDE 03 Dec 11:53:37 11:57:50 35° 286° (WNW) 12:01:08 436.750
Cosmos 2499 03 Dec 12:01:49 12:10:39 73° 76° (ENE) 12:18:54 435.465 / 435.565
BEESAT 3 03 Dec 12:05:10 12:07:25 14° 21° (NNE) 12:09:40 437.485
HUMSAT D 03 Dec 12:05:45 12:08:34 18° 299° (WNW) 12:11:23 437.325/437.525
DX 1 03 Dec 12:12:16 12:15:55 25° 94° (E) 12:19:32 434.975-435.025
GONETS M04 03 Dec 12:13:00 12:21:46 76° 78° (ENE) 12:30:29
PCSat 03 Dec 12:15:48 12:20:47 39° 115° (ESE) 12:25:50 145.827
Oscar 19 03 Dec 12:20:07 12:25:04 52° 68° (ENE) 12:30:03 437.125/150
BUGSAT 1 03 Dec 12:22:37 12:26:38 42° 262° (W) 12:30:42 437.445
AO-85 03 Dec 12:23:43 12:26:58 24° 244° (WSW) 12:30:06 145.980
UKube-1 03 Dec 12:25:36 12:29:14 25° 94° (E) 12:32:50 .
NANOSAT C BR1 03 Dec 12:26:07 12:28:58 17° 270° (W) 12:31:49 145.865
ESTCUBE 1 03 Dec 12:27:31 12:32:00 64° 288° (WNW) 12:36:28 437.505/2401.250
BEESAT 2 03 Dec 12:27:34 12:29:40 14° 19° (NNE) 12:31:46 435.950
QB50P2 03 Dec 12:29:27 12:31:50 15° 271° (W) 12:34:15 145.880/145.840
POLYITAN 1 03 Dec 12:29:55 12:32:27 15° 271° (W) 12:34:59 437.675
TISAT 1 03 Dec 12:43:37 12:45:18 12° 87° (E) 12:46:59 437.305
ITAMSAT 1 03 Dec 12:44:15 12:47:14 16° 52° (NE) 12:50:13 435.822/435.867
SPROUT 03 Dec 12:44:27 12:48:45 61° 101° (ESE) 12:53:00 437.525
QB50P1 03 Dec 12:45:29 12:46:44 11° 274° (W) 12:47:58 145.935-145.965
AISAT 03 Dec 12:47:10 12:51:41 86° 287° (WNW) 12:56:10 437.250
AIST 2 03 Dec 12:47:30 12:49:22 13° 347° (NNW) 12:51:14 435.215
DUCHIFAT 1 03 Dec 12:51:59 12:53:06 11° 274° (W) 12:54:13 145.980
AO-7 03 Dec 13:04:20 13:11:15 31° 48° (NE) 13:18:11 29.400- 29.500
